Voltar ao catálogo

CZ-6A DEB

AtivoPO
NORAD 61347·DEBRIS·🇨🇳 China

Lançado Aug 6, 2024 de Taiyuan Satellite Launch Center

Loading…

Próximas Passagens (próximas 24 horas)

TLE

AtualizadoSource: Space-Track

Época: Sep 14, 2026, 03:42 UTC

1 61347U 24140VL  26257.15455908  .00002956  00000-0  79301-3 0  9996
2 61347  89.6564 322.3361 0068489 263.3710  95.9696 14.46607528106721

Acompanhe CZ-6A DEB em tempo real com AllMySat

Download on the App Store